Home   Weather   Gjøvik   Past weeks

Flag for Norway Past Weather in Gjøvik, Norway — Yesterday and Last 2 Weeks

Now
52 °F

Cool.


Feels Like: 52 °F
Forecast: 53 / 59 °F
Wind: 1 mph from North

Location: Lillehammer-Saetherengen

Current Time: May 29, 2017 at 4:06:33 am

Latest Report: May 29, 2017 at 3:00 am


Visibility: N/A

Pressure: 29.81 "Hg

Humidity: 93%

Dew Point: 50 °F

Location of GjøvikLocation

Past Weather in Gjøvik — Graph

°F

Gjøvik Temperature Yesterday

Maximum temperature yesterday: 71 °F (at 3:00 pm)
Minimum temperature yesterday: 50 °F (at 6:00 am)
Average temperature yesterday: 60 °F

High & Low Weather Summary for the Past Weeks

 TemperatureHumidityPressure
High81 °F (May 27, 6:00 pm)97% (May 16, 9:00 am)30.39 "Hg (May 16, 9:00 am)
Low39 °F (May 16, 5:00 am)22% (May 27, 8:00 pm)29.67 "Hg (May 28, 4:00 pm)
Average54 °F72%30.00 "Hg
* Reported May 14 2:00 am — May 29 2:00 am, Gjøvik. Weather by CustomWeather, © 2017

Note: Actual official high and low records may vary slightly from our data, if they occured in-between our weather recording intervals... More about our weather records

Advertising

Gjøvik Weather History for the Previous 24 Hours

Scroll right to see more
 ConditionsComfort  
Time TempWeatherWind HumidityBarometerVisibility
2:00 am
Mon, May 29
53 °FCool.1 mph91%29.80 "HgN/A
1:00 am56 °FCool.2 mph86%29.79 "HgN/A
12:00 am57 °FCool.2 mph85%29.78 "HgN/A
11:00 pm
Sun, May 28
58 °FCool.1 mph82%29.75 "HgN/A
10:00 pm60 °FCool.2 mph82%29.73 "HgN/A
9:00 pm61 °FCool.2 mph80%29.70 "HgN/A
8:00 pm60 °FCool.1 mph81%29.70 "HgN/A
7:00 pm63 °FMild.5 mph78%29.69 "HgN/A
6:00 pm60 °FCool.5 mph82%29.70 "HgN/A
5:00 pm59 °FCool.5 mph76%29.73 "HgN/A
4:00 pm70 °FMild.2 mph55%29.67 "HgN/A
3:00 pm71 °FMild.3 mph49%29.68 "HgN/A
2:00 pm69 °FMild.3 mph57%29.70 "HgN/A
1:00 pm68 °FMild.5 mph56%29.73 "HgN/A
12:00 pm63 °FMild.3 mph68%29.75 "HgN/A
11:00 am61 °FCool.2 mph71%29.81 "HgN/A
10:00 am58 °FCool.3 mph74%29.83 "HgN/A
9:00 am57 °FCool.1 mph68%29.84 "HgN/A
8:00 am57 °FCool.1 mph68%29.86 "HgN/A
7:00 am57 °FCool.No wind70%29.88 "HgN/A
6:00 am50 °FCool.No wind81%29.90 "HgN/A
5:00 am50 °FCool.No wind79%29.92 "HgN/A
4:00 am52 °FCool.No wind75%29.93 "HgN/A
Weather by CustomWeather, © 2017

See weather overviewHow to use our weather pages